DW0372 Weather Reports


time (UTC)temp
F
wind
direction
speed
knots
gust
knots
rain 1hr
in
rain 24hr
in
rain mn
in
humidity
%
barometer
mb
20260505035503 65 359 0.0 2.6 0.00 0.00 0.00 56 1010.0
20260505035004 66 359 0.0 4.3 0.00 0.00 0.00 56 1009.9
20260505034521 66 359 0.0 6.1 0.00 0.00 0.00 55 1009.8
20260505034003 66 310 0.9 6.1 0.00 0.00 0.00 55 1009.8
20260505033006 67 349 1.7 7.8 0.00 0.00 0.00 52 1009.7
20260505032503 67 350 2.6 7.0 0.00 0.00 0.00 52 1009.6
20260505032005 68 357 2.6 6.1 0.00 0.00 0.00 51 1009.6
20260505031522 69 8 2.6 6.1 0.00 0.00 0.00 51 1009.5
20260505031003 69 331 2.6 6.1 0.00 0.00 0.00 50 1009.5
20260505030504 70 4 0.0 5.2 0.00 0.00 0.00 51 1009.4
20260505030011 71 357 2.6 6.1 0.00 0.00 0.00 50 1009.3
20260505025509 72 360 1.7 6.1 0.00 0.00 0.00 48 1009.3
20260505025007 72 1 0.9 4.3 0.00 0.00 0.00 48 1009.2
20260505024505 73 9 0.0 4.3 0.00 0.00 0.00 46 1009.1
20260505024003 74 349 0.0 3.5 0.00 0.00 0.00 44 1009.1
20260505023508 74 16 0.9 3.5 0.00 0.00 0.00 43 1009.0
20260505023022 75 228 0.0 0.0 0.00 0.00 0.00 43 1009.0
20260505022003 76 228 0.0 4.3 0.00 0.00 0.00 42 1009.1
20260505021518 76 228 0.9 4.3 0.00 0.00 0.00 40 1009.0
20260505021003 76 218 0.0 0.9 0.00 0.00 0.00 40 1009.0
20260505020504 76 218 0.0 4.3 0.00 0.00 0.00 42 1009.0
20260505020008 77 218 0.0 5.2 0.00 0.00 0.00 41 1009.1
20260505015505 77 232 0.0 5.2 0.00 0.00 0.00 39 1009.0
20260505015005 77 221 0.0 4.3 0.00 0.00 0.00 41 1009.1
20260505014520 77 221 0.9 4.3 0.00 0.00 0.00 38 1009.0
20260505014006 77 239 0.0 5.2 0.00 0.00 0.00 40 1009.1
20260505013507 78 238 1.7 5.2 0.00 0.00 0.00 38 1009.1
20260505013011 78 210 0.0 2.6 0.00 0.00 0.00 38 1009.1
20260505012507 78 207 0.0 7.0 0.00 0.00 0.00 40 1009.1
20260505012009 78 198 0.0 7.0 0.00 0.00 0.00 37 1009.1
20260505011006 78 238 0.0 6.1 0.00 0.00 0.00 37 1009.3
20260505010506 78 242 0.9 6.1 0.00 0.00 0.00 36 1009.3
20260505010028 78 248 0.0 5.2 0.00 0.00 0.00 38 1009.3
20260505005503 78 251 1.7 5.2 0.00 0.00 0.00 36 1009.3
20260505005004 78 229 0.0 4.3 0.00 0.00 0.00 37 1009.3
20260505004509 78 228 0.0 4.3 0.00 0.00 0.00 36 1009.3
20260505004004 78 234 0.0 5.2 0.00 0.00 0.00 36 1009.3
20260505003505 78 233 2.6 6.1 0.00 0.00 0.00 35 1009.3
20260505003016 78 236 3.5 6.1 0.00 0.00 0.00 35 1009.3
20260505002506 78 239 2.6 5.2 0.00 0.00 0.00 35 1009.3
20260505002005 78 244 2.6 4.3 0.00 0.00 0.00 36 1009.3
20260505001517 78 226 0.0 5.2 0.00 0.00 0.00 36 1009.3
20260505001005 79 249 0.9 5.2 0.00 0.00 0.00 36 1009.3
20260505000506 79 242 0.0 5.2 0.00 0.00 0.00 36 1009.4
20260505000017 79 248 0.0 5.2 0.00 0.00 0.00 35 1009.4
20260504235506 79 227 0.0 4.3 0.00 0.00 0.00 36 1009.4
20260504235003 79 229 0.0 4.3 0.00 0.00 0.00 34 1009.4
20260504234508 80 219 0.0 5.2 0.00 0.00 0.00 35 1009.5
20260504234001 79 225 0.9 7.0 0.00 0.00 0.00 36 1009.5
20260504233503 79 227 1.7 7.0 0.00 0.00 0.00 35 1009.5
20260504233010 79 231 0.9 5.2 0.00 0.00 0.00 34 1009.6
20260504232504 79 238 2.6 4.3 0.00 0.00 0.00 35 1009.5
20260504232002 80 240 0.0 5.2 0.00 0.00 0.00 36 1009.5
20260504231004 79 231 0.0 7.8 0.00 0.00 0.00 35 1009.6
20260504230502 79 258 0.0 7.8 0.00 0.00 0.00 36 1009.6
20260504230007 80 259 1.7 7.8 0.00 0.00 0.00 35 1009.6
20260504225503 80 238 0.0 4.3 0.00 0.00 0.00 36 1009.6
20260504225004 80 230 0.9 7.0 0.00 0.00 0.00 36 1009.6
20260504224508 80 236 1.7 7.0 0.00 0.00 0.00 34 1009.7
20260504224003 79 224 0.0 7.0 0.00 0.00 0.00 35 1009.7
20260504223503 80 231 1.7 6.1 0.00 0.00 0.00 36 1009.8
20260504223003 79 233 0.9 7.8 0.00 0.00 0.00 36 1009.8
20260504222503 79 235 3.5 7.8 0.00 0.00 0.00 35 1009.9
20260504222004 81 223 0.9 5.2 0.00 0.00 0.00 35 1010.0
20260504221516 80 248 0.0 5.2 0.00 0.00 0.00 33 1010.0
20260504221003 79 219 0.9 6.1 0.00 0.00 0.00 35 1010.1
20260504220504 79 245 0.0 6.1 0.00 0.00 0.00 33 1010.1
20260504220004 79 224 1.7 6.1 0.00 0.00 0.00 32 1010.2
20260504215505 80 268 0.9 6.1 0.00 0.00 0.00 33 1010.2
20260504215002 80 245 0.9 6.1 0.00 0.00 0.00 33 1010.2
20260504214503 80 271 0.9 7.0 0.00 0.00 0.00 34 1010.1
20260504214003 79 240 0.9 7.0 0.00 0.00 0.00 33 1010.2
20260504213503 79 274 0.0 7.0 0.00 0.00 0.00 34 1010.2
20260504213006 79 225 1.7 7.0 0.00 0.00 0.00 33 1010.2
20260504212503 80 260 0.0 0.9 0.00 0.00 0.00 36 1010.2
20260504212003 80 4 0.0 4.3 0.00 0.00 0.00 31 1010.2
20260504211504 79 250 0.9 5.2 0.00 0.00 0.00 33 1010.2
20260504211004 79 236 0.9 7.0 0.00 0.00 0.00 31 1010.2
20260504210504 79 243 1.7 7.0 0.00 0.00 0.00 35 1010.2
20260504210010 80 258 0.9 6.1 0.00 0.00 0.00 33 1010.2
20260504205504 80 225 0.0 6.1 0.00 0.00 0.00 34 1010.2
20260504205007 79 235 0.0 7.0 0.00 0.00 0.00 34 1010.3
20260504204505 78 209 1.7 7.0 0.00 0.00 0.00 35 1010.3
20260504204004 78 228 2.6 5.2 0.00 0.00 0.00 37 1010.4
20260504203503 78 248 0.9 5.2 0.00 0.00 0.00 34 1010.4
20260504203006 79 246 0.0 7.0 0.00 0.00 0.00 39 1010.4
20260504202506 78 288 0.0 7.8 0.00 0.00 0.00 38 1010.4
20260504202004 77 219 2.6 7.8 0.00 0.00 0.00 37 1010.4
20260504201509 77 248 2.6 5.2 0.00 0.00 0.00 39 1010.4
20260504201003 77 127 0.9 6.1 0.00 0.00 0.00 41 1010.5
20260504200503 77 231 2.6 6.1 0.00 0.00 0.00 37 1010.5
20260504200016 77 238 0.0 1.7 0.00 0.00 0.00 42 1010.5
20260504195504 77 240 0.0 5.2 0.00 0.00 0.00 43 1010.6
20260504195007 76 205 0.9 5.2 0.00 0.00 0.00 42 1010.6
20260504194509 77 120 0.0 4.3 0.00 0.00 0.00 40 1010.5
20260504194004 75 234 0.0 4.3 0.00 0.00 0.00 40 1010.6
20260504193007 76 165 0.9 5.2 0.00 0.00 0.00 42 1010.6
20260504192503 75 233 0.9 6.1 0.00 0.00 0.00 41 1010.7
20260504192005 75 236 3.5 6.1 0.00 0.00 0.00 40 1010.7
20260504191505 75 237 1.7 5.2 0.00 0.00 0.00 41 1010.8
20260504191003 76 224 0.0 7.8 0.00 0.00 0.00 43 1010.8
20260504190506 75 247 1.7 7.8 0.00 0.00 0.00 42 1010.8
20260504190012 75 229 0.9 4.3 0.00 0.00 0.00 41 1010.8
20260504185503 74 169 0.0 4.3 0.00 0.00 0.00 41 1010.9
20260504185003 74 135 0.0 4.3 0.00 0.00 0.00 44 1011.0
20260504184527 75 238 1.7 4.3 0.00 0.00 0.00 44 1011.0
20260504184006 74 232 0.0 4.3 0.00 0.00 0.00 47 1011.1
20260504183503 73 233 0.0 5.2 0.00 0.00 0.00 45 1011.1
20260504183023 74 185 0.9 5.2 0.00 0.00 0.00 47 1011.1
20260504182506 74 233 0.0 0.9 0.00 0.00 0.00 45 1011.1
20260504182008 73 237 0.0 0.9 0.00 0.00 0.00 48 1011.1
20260504181509 73 237 0.0 3.5 0.00 0.00 0.00 49 1011.1
20260504181003 72 236 0.0 6.1 0.00 0.00 0.00 48 1011.1
20260504180503 72 238 0.0 6.1 0.00 0.00 0.00 49 1011.0
20260504180008 72 232 0.0 3.5 0.00 0.00 0.00 49 1011.0
20260504175502 72 233 0.0 3.5 0.00 0.00 0.00 49 1011.1
20260504175002 71 238 0.0 3.5 0.00 0.00 0.00 48 1011.2
20260504174516 70 238 0.9 3.5 0.00 0.00 0.00 47 1011.1
20260504174005 72 231 0.0 2.6 0.00 0.00 0.00 49 1011.0
20260504173506 71 236 0.0 4.3 0.00 0.00 0.00 49 1011.0
20260504173020 70 235 0.0 4.3 0.00 0.00 0.00 48 1011.1
20260504172507 70 219 0.0 0.9 0.00 0.00 0.00 49 1011.0
20260504172003 70 248 0.0 0.9 0.00 0.00 0.00 52 1011.0
20260504171521 70 252 0.0 3.5 0.00 0.00 0.00 53 1011.0
20260504171011 69 249 0.0 3.5 0.00 0.00 0.00 50 1011.0
20260504170503 70 254 0.0 0.9 0.00 0.00 0.00 50 1010.9
20260504151005 59 11 0.0 0.9 0.00 0.00 0.00 76 1010.3
20260504150510 58 11 0.0 0.9 0.00 0.00 0.00 76 1010.2
20260504141004 53 13 0.0 0.0 0.00 0.00 0.00 84 1010.0
20260504140502 53 13 0.0 0.0 0.00 0.00 0.00 83 1010.0
20260504130502 51 13 0.0 0.0 0.00 0.00 0.00 88 1009.7
20260504110503 53 13 0.0 0.0 0.00 0.00 0.00 84 1009.7
20260504100504 55 13 0.0 0.0 0.00 0.00 0.00 82 1009.6
20260504082002 58 13 0.0 0.0 0.00 0.00 0.00 78 1009.5
20260504081518 58 13 0.0 0.0 0.00 0.00 0.00 75 1009.5
20260504081007 58 13 0.0 0.0 0.00 0.00 0.00 75 1009.6
20260504080507 59 13 0.0 0.0 0.00 0.00 0.00 76 1009.6
20260504050504 64 13 0.0 0.0 0.00 0.00 0.00 62 1009.7
20260504050013 64 13 0.0 0.0 0.00 0.00 0.00 62 1009.7
20260504045503 65 13 0.0 0.0 0.00 0.00 0.00 60 1009.7
20260504045005 65 13 0.0 0.0 0.00 0.00 0.00 62 1009.6
20260504044520 65 13 0.0 0.0 0.00 0.00 0.00 61 1009.6
20260504044003 66 13 0.0 0.0 0.00 0.00 0.00 60 1009.6
20260504043504 65 13 0.0 0.0 0.00 0.00 0.00 58 1009.6
20260504043007 66 13 0.0 0.0 0.00 0.00 0.00 58 1009.6
20260504042503 66 13 0.0 0.0 0.00 0.00 0.00 57 1009.5
20260504042004 67 13 0.0 0.9 0.00 0.00 0.00 54 1009.5
20260504041508 67 13 0.0 1.7 0.00 0.00 0.00 54 1009.5
20260504041003 67 6 0.0 1.7 0.00 0.00 0.00 53 1009.5
20260504040504 68 6 0.0 0.9 0.00 0.00 0.00 53 1009.4
20260504040008 68 4 0.0 0.9 0.00 0.00 0.00 53 1009.4